TimeCDT,TemperatureF,Dew PointF,Humidity,Sea Level PressureIn,VisibilityMPH,Wind Direction,Wind SpeedMPH,Gust SpeedMPH,PrecipitationIn,Events,Conditions,WindDirDegrees,DateUTC
12:13 AM,26.6,21.2,80,30.20,10.0,WSW,3.5,-,N/A,,Scattered Clouds,240,2012-10-27 05:13:00
12:33 AM,26.6,21.2,80,30.20,10.0,West,5.8,-,N/A,,Scattered Clouds,260,2012-10-27 05:33:00
12:52 AM,26.6,21.2,80,30.20,10.0,WSW,4.6,-,N/A,,Scattered Clouds,250,2012-10-27 05:52:00
1:13 AM,26.6,21.2,80,30.21,10.0,WSW,4.6,-,N/A,,Scattered Clouds,250,2012-10-27 06:13:00
1:33 AM,26.6,21.2,80,30.20,10.0,WSW,4.6,-,N/A,,Scattered Clouds,250,2012-10-27 06:33:00
1:53 AM,26.6,21.2,80,30.20,10.0,West,4.6,-,N/A,,Mostly Cloudy,260,2012-10-27 06:53:00
2:13 AM,26.6,21.2,80,30.20,10.0,West,5.8,-,N/A,,Overcast,260,2012-10-27 07:13:00
2:33 AM,26.6,21.2,80,30.20,10.0,West,3.5,-,N/A,,Overcast,260,2012-10-27 07:33:00
2:52 AM,26.6,21.2,80,30.21,10.0,WSW,3.5,-,N/A,,Overcast,250,2012-10-27 07:52:00
3:33 AM,26.6,21.2,80,30.20,10.0,WSW,3.5,-,N/A,,Overcast,250,2012-10-27 08:33:00
3:52 AM,26.6,21.2,80,30.21,7.0,WSW,5.8,-,N/A,Snow,Light Snow,240,2012-10-27 08:52:00
4:13 AM,26.6,21.2,80,30.20,10.0,WSW,3.5,-,N/A,,Overcast,240,2012-10-27 09:13:00
4:33 AM,26.6,23.0,86,30.20,10.0,WSW,3.5,-,N/A,,Overcast,250,2012-10-27 09:33:00
4:52 AM,26.6,21.2,80,30.20,10.0,WSW,3.5,-,N/A,,Overcast,250,2012-10-27 09:52:00
5:13 AM,26.6,21.2,80,30.21,10.0,WSW,5.8,-,N/A,,Overcast,240,2012-10-27 10:13:00
5:33 AM,26.6,23.0,86,30.21,10.0,Calm,Calm,-,N/A,,Overcast,0,2012-10-27 10:33:00
5:52 AM,26.6,23.0,86,30.21,10.0,Calm,Calm,-,N/A,,Overcast,0,2012-10-27 10:52:00
6:13 AM,26.6,23.0,86,30.21,10.0,WSW,4.6,-,N/A,,Overcast,240,2012-10-27 11:13:00
6:52 AM,26.6,21.2,80,30.22,10.0,West,6.9,-,N/A,,Overcast,260,2012-10-27 11:52:00
7:13 AM,26.6,21.2,80,30.22,10.0,WSW,3.5,-,N/A,,Overcast,250,2012-10-27 12:13:00
7:32 AM,26.6,21.2,80,30.23,10.0,WSW,5.8,-,N/A,,Overcast,250,2012-10-27 12:32:00
7:53 AM,26.6,21.2,80,30.23,10.0,WSW,5.8,-,N/A,,Overcast,240,2012-10-27 12:53:00
8:13 AM,28.4,21.2,74,30.24,10.0,WSW,5.8,-,N/A,,Overcast,240,2012-10-27 13:13:00
8:32 AM,28.4,23.0,80,30.24,10.0,WSW,4.6,-,N/A,,Overcast,250,2012-10-27 13:32:00
8:53 AM,28.4,23.0,80,30.25,10.0,WSW,5.8,-,N/A,,Overcast,250,2012-10-27 13:53:00
9:13 AM,28.4,23.0,80,30.25,10.0,West,6.9,-,N/A,,Overcast,260,2012-10-27 14:13:00
9:32 AM,28.4,23.0,80,30.25,10.0,West,5.8,-,N/A,,Overcast,260,2012-10-27 14:32:00
9:53 AM,28.4,23.0,80,30.25,10.0,West,3.5,-,N/A,,Overcast,260,2012-10-27 14:53:00
10:13 AM,28.4,21.2,74,30.25,10.0,West,6.9,-,N/A,,Mostly Cloudy,260,2012-10-27 15:13:00
10:32 AM,30.2,21.2,69,30.25,10.0,West,6.9,-,N/A,,Scattered Clouds,270,2012-10-27 15:32:00
10:53 AM,30.2,19.4,64,30.25,10.0,West,12.7,19.6,N/A,,Scattered Clouds,260,2012-10-27 15:53:00
11:13 AM,30.2,19.4,64,30.25,10.0,WSW,10.4,19.6,N/A,,Mostly Cloudy,250,2012-10-27 16:13:00
11:32 AM,30.2,17.6,60,30.25,10.0,WNW,11.5,-,N/A,,Overcast,290,2012-10-27 16:32:00
11:53 AM,30.2,17.6,60,30.25,10.0,West,11.5,17.3,N/A,,Mostly Cloudy,280,2012-10-27 16:53:00
12:13 PM,32.0,17.6,55,30.25,10.0,West,13.8,19.6,N/A,,Overcast,260,2012-10-27 17:13:00
12:32 PM,33.8,17.6,52,30.24,10.0,West,10.4,17.3,N/A,,Mostly Cloudy,260,2012-10-27 17:32:00
12:53 PM,32.0,17.6,55,30.24,10.0,West,8.1,-,N/A,,Overcast,280,2012-10-27 17:53:00
1:13 PM,33.8,17.6,52,30.24,10.0,WNW,5.8,-,N/A,,Overcast,300,2012-10-27 18:13:00
1:32 PM,32.0,15.8,51,30.24,10.0,West,8.1,-,N/A,,Mostly Cloudy,280,2012-10-27 18:32:00
1:53 PM,32.0,15.8,51,30.24,10.0,West,8.1,-,N/A,,Overcast,270,2012-10-27 18:53:00
2:13 PM,32.0,17.6,55,30.24,10.0,West,10.4,16.1,N/A,,Overcast,280,2012-10-27 19:13:00
2:32 PM,33.8,17.6,52,30.23,10.0,West,10.4,17.3,N/A,,Overcast,280,2012-10-27 19:32:00
2:53 PM,33.8,17.6,52,30.23,10.0,West,8.1,-,N/A,,Overcast,260,2012-10-27 19:53:00
3:13 PM,32.0,17.6,55,30.24,10.0,West,6.9,-,N/A,,Overcast,260,2012-10-27 20:13:00
3:33 PM,32.0,15.8,51,30.24,10.0,West,8.1,19.6,N/A,,Overcast,260,2012-10-27 20:33:00
3:53 PM,32.0,17.6,55,30.24,10.0,West,11.5,-,N/A,,Overcast,280,2012-10-27 20:53:00
4:12 PM,32.0,17.6,55,30.25,10.0,WSW,9.2,-,N/A,,Overcast,250,2012-10-27 21:12:00
4:33 PM,30.2,17.6,60,30.25,10.0,West,6.9,-,N/A,,Overcast,280,2012-10-27 21:33:00
4:53 PM,30.2,17.6,60,30.25,10.0,West,6.9,-,N/A,,Overcast,270,2012-10-27 21:53:00
5:12 PM,30.2,17.6,60,30.25,10.0,WSW,6.9,-,N/A,,Overcast,250,2012-10-27 22:12:00
5:33 PM,30.2,15.8,55,30.25,10.0,WSW,8.1,-,N/A,,Overcast,250,2012-10-27 22:33:00
5:53 PM,30.2,15.8,55,30.25,10.0,WSW,8.1,-,N/A,,Overcast,240,2012-10-27 22:53:00
6:12 PM,30.2,15.8,55,30.25,10.0,West,8.1,-,N/A,,Overcast,260,2012-10-27 23:12:00
6:33 PM,30.2,17.6,60,30.26,10.0,West,4.6,-,N/A,,Overcast,260,2012-10-27 23:33:00
6:53 PM,28.4,17.6,64,30.26,10.0,West,3.5,-,N/A,,Mostly Cloudy,260,2012-10-27 23:53:00
7:12 PM,28.4,17.6,64,30.26,10.0,Calm,Calm,-,N/A,,Mostly Cloudy,0,2012-10-28 00:12:00
7:33 PM,28.4,17.6,64,30.27,10.0,Calm,Calm,-,N/A,,Mostly Cloudy,0,2012-10-28 00:33:00
7:53 PM,28.4,17.6,64,30.27,10.0,Calm,Calm,-,N/A,,Overcast,0,2012-10-28 00:53:00
8:12 PM,28.4,17.6,64,30.27,10.0,Calm,Calm,-,N/A,,Overcast,0,2012-10-28 01:12:00
8:33 PM,28.4,19.4,69,30.27,10.0,Calm,Calm,-,N/A,,Overcast,0,2012-10-28 01:33:00
8:53 PM,28.4,19.4,69,30.27,10.0,Calm,Calm,-,N/A,,Overcast,0,2012-10-28 01:53:00
9:13 PM,28.4,19.4,69,30.28,10.0,Calm,Calm,-,N/A,,Overcast,0,2012-10-28 02:13:00
9:33 PM,28.4,19.4,69,30.28,10.0,Calm,Calm,-,N/A,,Overcast,0,2012-10-28 02:33:00
9:53 PM,28.4,19.4,69,30.28,10.0,Calm,Calm,-,N/A,,Overcast,0,2012-10-28 02:53:00
10:12 PM,26.6,21.2,80,30.28,10.0,Calm,Calm,-,N/A,,Overcast,0,2012-10-28 03:12:00
10:33 PM,26.6,21.2,80,30.29,10.0,Calm,Calm,-,N/A,,Overcast,0,2012-10-28 03:33:00
10:53 PM,26.6,23.0,86,30.28,10.0,Calm,Calm,-,N/A,,Overcast,0,2012-10-28 03:53:00
11:33 PM,24.8,21.2,86,30.29,10.0,Calm,Calm,-,N/A,,Scattered Clouds,0,2012-10-28 04:33:00
11:53 PM,24.8,21.2,86,30.30,10.0,Calm,Calm,-,N/A,,Mostly Cloudy,0,2012-10-28 04:53:00